GW3496 Weather Reports


time (UTC)temp
C
wind
direction
speed
KPH
gust
KPH
rain 1hr
cm
rain 24hr
cm
rain mn
cm
humidity
%
barometer
mb
20260904143056 27 40 1.6 8.0 0.00 1.19 1.19 79 1013.4
20260904141545 27 333 3.2 9.7 0.00 1.19 1.19 81 1013.2
20260904140042 26 352 1.6 8.0 0.00 1.19 1.19 83 1013.1
20260904134551 26 14 0.0 8.0 0.00 1.19 1.19 85 1013.2
20260904133040 25 40 6.4 12.9 0.00 1.19 1.19 87 1013.1
20260904131538 25 26 4.8 14.5 0.00 1.19 1.19 90 1013.0
20260904130049 24 27 9.7 17.7 0.00 1.19 1.19 92 1012.8
20260904124543 24 51 4.8 16.1 0.00 1.19 1.19 93 1012.7
20260904123041 23 23 6.4 11.3 0.00 1.19 1.19 94 1012.5
20260904121540 23 282 0.0 4.8 0.00 1.19 1.19 94 1012.5
20260904120051 23 323 0.0 0.0 0.00 1.19 1.19 94 1012.4
20260904114543 22 239 0.0 0.0 0.00 1.19 1.19 95 1012.2
20260904113043 22 234 0.0 0.0 0.00 1.19 1.19 95 1012.0
20260904111542 22 222 0.0 0.0 0.00 1.19 1.19 94 1011.8
20260904110050 22 350 0.0 0.0 0.00 1.19 1.19 94 1011.8
20260904104544 22 350 0.0 0.0 0.00 1.19 1.19 94 1011.7
20260904103052 22 190 0.0 0.0 0.00 1.19 1.19 94 1011.5
20260904101542 22 190 0.0 0.0 0.00 1.19 1.19 94 1011.5
20260904100051 22 206 0.0 0.0 0.00 1.19 1.19 94 1011.4
20260904094553 22 188 0.0 0.0 0.00 1.19 1.19 94 1011.3
20260904093054 22 222 0.0 6.4 0.00 1.19 1.19 94 1011.3
20260904091553 22 177 0.0 4.8 0.00 1.19 1.19 94 1011.4
20260904090053 22 154 3.2 8.0 0.00 1.19 1.19 94 1011.4
20260904084552 22 148 1.6 9.7 0.03 1.19 1.19 94 1011.5
20260904083044 22 146 1.6 4.8 0.03 1.19 1.19 94 1011.5
20260904081555 22 131 0.0 0.0 0.03 1.19 1.19 94 1011.5
20260904080052 22 355 0.0 0.0 0.05 1.19 1.19 94 1011.6
20260904074601 22 355 0.0 4.8 0.08 1.14 1.14 94 1011.3
20260904073045 22 15 0.0 6.4 0.10 1.14 1.14 93 1011.1
20260904071611 22 346 0.0 0.0 0.20 1.14 1.14 93 1011.2
20260904070106 22 260 3.2 6.4 0.23 1.14 1.14 92 1010.9
20260904064605 22 200 6.4 11.3 0.33 1.07 1.07 92 1011.0
20260904063054 22 281 0.0 0.0 0.43 1.04 1.04 92 1011.2
20260904061553 22 164 1.6 6.4 0.56 0.97 0.97 92 1011.2
20260904060054 22 139 1.6 11.3 0.89 0.89 0.89 92 1011.3
20260904054551 23 226 8.0 16.1 0.74 0.74 0.74 91 1011.9
20260904053100 23 232 3.2 6.4 0.56 0.56 0.56 90 1012.4
20260904051553 23 282 3.2 17.7 0.36 0.36 0.36 88 1013.3
20260904050107 25 298 16.1 43.5 0.00 0.00 0.00 82 1013.8
20260904044617 26 17 22.5 38.6 0.00 0.00 0.00 81 1014.1
20260904043105 27 17 19.3 38.6 0.00 0.00 0.00 87 1013.6
20260904041540 27 321 6.4 16.1 0.00 0.00 0.00 88 1012.4
20260904040041 28 17 4.8 12.9 0.00 0.00 0.00 87 1012.8
20260904034540 28 298 9.7 17.7 0.00 0.00 0.00 87 1012.0
20260904033049 28 319 1.6 6.4 0.00 0.00 0.00 87 1011.8
20260904031557 28 5 0.0 0.0 0.00 0.00 0.00 88 1011.6
20260904030040 28 5 0.0 0.0 0.00 0.00 0.00 87 1011.6
20260904024543 28 34 0.0 0.0 0.00 0.00 0.00 86 1011.6
20260904023042 29 165 0.0 1.6 0.00 0.00 0.00 84 1011.7
20260904021548 29 179 0.0 1.6 0.00 0.00 0.00 84 1011.8
20260904020041 29 261 0.0 0.0 0.00 0.00 0.00 84 1012.1
20260904014544 29 159 0.0 1.6 0.00 0.00 0.00 84 1011.9
20260904013042 30 184 0.0 0.0 0.00 0.00 0.00 83 1012.1
20260904011543 30 145 0.0 0.0 0.00 0.00 0.00 81 1012.2
20260904010050 30 163 0.0 0.0 0.00 0.00 0.00 79 1012.7
20260904004543 30 202 0.0 0.0 0.00 0.00 0.00 78 1012.9
20260904003039 31 202 0.0 0.0 0.00 0.00 0.00 78 1013.0
20260904001543 31 234 0.0 0.0 0.00 0.00 0.00 77 1012.9
20260904000041 31 188 0.0 0.0 0.00 0.00 0.00 76 1012.5
20260903234545 31 189 0.0 8.0 0.00 0.00 0.00 76 1012.2
20260903233046 31 269 0.0 0.0 0.00 0.00 0.00 75 1012.5
20260903231539 31 228 0.0 8.0 0.00 0.00 0.00 74 1012.2
20260903230047 31 264 3.2 8.0 0.00 0.00 0.00 74 1012.3
20260903224545 32 269 4.8 12.9 0.00 0.00 0.00 72 1012.0
20260903223047 32 263 4.8 16.1 0.00 0.00 0.00 71 1011.8
20260903221549 32 227 11.3 17.7 0.00 0.00 0.00 71 1011.9
20260903220042 32 210 9.7 16.1 0.00 0.00 0.00 69 1012.2
20260903214538 32 212 9.7 14.5 0.00 0.00 0.00 69 1012.2
20260903213043 32 223 4.8 16.1 0.00 0.00 0.00 70 1012.4
20260903211547 31 157 3.2 14.5 0.00 0.00 0.00 71 1012.7
20260903210054 31 227 8.0 19.3 0.00 0.00 0.00 69 1012.7
20260903204543 31 228 8.0 14.5 0.00 0.00 0.00 69 1012.7
20260903203049 32 263 6.4 12.9 0.00 0.00 0.00 67 1012.9
20260903201542 31 213 6.4 16.1 0.00 0.00 0.00 68 1013.2
20260903200051 31 298 6.4 16.1 0.00 0.00 0.00 69 1013.4
20260903194545 31 284 1.6 12.9 0.00 0.00 0.00 70 1013.4
20260903193048 31 293 4.8 11.3 0.00 0.00 0.00 69 1014.0
20260903191542 30 247 4.8 12.9 0.00 0.00 0.00 70 1014.1
20260903190043 31 254 4.8 12.9 0.00 0.00 0.00 71 1014.0
20260903184548 30 253 6.4 12.9 0.00 0.00 0.00 72 1014.1
20260903183044 30 276 1.6 11.3 0.00 0.00 0.00 72 1014.2
20260903181542 30 319 1.6 6.4 0.00 0.00 0.00 71 1014.6
20260903180106 31 311 3.2 9.7 0.00 0.00 0.00 71 1014.7
20260903174544 30 97 1.6 6.4 0.00 0.00 0.00 71 1014.8
20260903173043 30 318 6.4 14.5 0.00 0.00 0.00 72 1015.4
20260903171549 30 301 1.6 12.9 0.00 0.00 0.00 75 1015.5
20260903170049 28 11 0.0 9.7 0.00 0.00 0.00 77 1015.9
20260903164558 28 200 3.2 12.9 0.00 0.00 0.00 77 1015.6
20260903163046 28 355 0.0 0.0 0.00 0.00 0.00 78 1015.7
20260903161543 27 186 0.0 9.7 0.00 0.00 0.00 82 1016.1
20260903160047 27 69 3.2 9.7 0.00 0.00 0.00 82 1015.9
20260903154552 26 165 0.0 8.0 0.00 0.00 0.00 87 1016.4
20260903153052 25 18 0.0 8.0 0.00 0.00 0.00 89 1016.1
20260903151553 25 360 0.0 8.0 0.00 0.00 0.00 90 1016.1
20260903150048 25 41 0.0 0.0 0.00 0.00 0.00 91 1015.8
20260903144556 25 123 3.2 6.4 0.00 0.00 0.00 92 1015.7